Location: Ariel
(45.9570°N, 122.5700°W)
Time: 13:26:42
(UTC-07:00)

Altair - Pass Details

Date: 25 July 2019
Orbit: 1501 x 1683 km, 47.2° (Epoch: 24 August)

Event Time Altitude Azimuth Distance (km) Brightness Sun altitude
Rises 15:48:20 0° 282° (WNW) 4,636 10.5 49.3°
Reaches altitude 10° 15:51:20 10° 282° (WNW) 3,655 10.1 48.8°
Maximum altitude 16:00:33 90° 191° (S) 1,520 8.4 47.4°
Drops below altitude 10° 16:09:58 10° 106° (ESE) 3,727 9.3 45.8°
Sets 16:13:03 0° 106° (ESE) 4,732 9.7 45.3°
